OPS 4682 DEB, 26733

Orbit data source: Space-Track

OPS 4682 DEB, 26733 is space debris in LEO originally from a launch on Sat, 03 Apr 1965 UTC launched from the Air Force Western Test Range (AFWTR). Debris objects in space refer to the collection of defunct objects orbiting the Earth. Examples of debris include non-operational satellites, rocket bodies, and fragments generated from explosions, collisions, or faulty payload assembly.

Loading next visibility...
Identifier
26733, 1965-027BG
Orbit
LEO
Country
Flag of USUS
Related business
Manufacturer
Unknown
Mission
Spacecraft
Bus & Motor
Unknown
Mass
Unknown
Launch date (UTC)
1965-04-03 (61 years ago)
Launch vehicle
Unknown
Launch site
Air Force Western Test Range (AFWTR)
Object type
Payload
Rocket body
Debris
Shape & HBR
Unknown shape, 0.1 m
Radar Cross Section
Small (<0.1 m²)

Expand to show TLE details & history
Last TLE update: 8 hours ago

TLE from 8 hours ago
0 OPS 4682 DEB
1 26733U 65027BG  26104.17966567  .00000051  00000-0  15543-3 0  9998
2 26733  90.2444   4.7719 0035860  33.4711 119.5584 12.94410537188720
Epoch: 2026-04-14T04:18Z
TLE epoch observation values (Epoch: 2026-04-14T04:18:43.113Z)
Latitude
26.64579°
Longitude
-82.14534°
Altitude
1,300.936 km
Speed
7.202 km/s
True Right ascension
12h 19m 34s
True Declination
26° 31' 05"
Sunlit
Object was in full shadow at epoch
Visualization orbit readout
Latitude
Unknown
Longitude
Unknown
Altitude
Unknown
Speed
Unknown
Apparent Right ascension
Unknown
Apparent Declination
Unknown
Sunlit
N/A
Visualization observer readout
Local Sidereal Time
18:53:50
Azimuth
Unknown
Elevation
Unknown
Doppler factor
Unknown
Orbital elements
Apogee altitude
1,308.667 km
Perigee altitude
1,253.734 km
Semi-major axis
7,659.338 km
Eccentricity
0.00359
Inclination
90.2444°
RAAN
4.7719°
Arg. of periapsis
33.4711°
True anomaly
119.91505°
Mean anomaly
119.5584°
Eccentric anomaly
119.73681°
Mean motion
3.23785 °/min
Orbital period
111.18 mins
BSTAR
0.00015543
Loading maneuver chart data...
Computing Atmospheric mass density...
Loading historical data...
Loading historical data...
Loading historical data...
Loading historical data...
Loading historical data...
Loading historical data...
Loading historical data...

Documentation

Showing up to 5 results
|